This is the latest recevied weather packets stored in our database for station/object EA7KZ-10. If no packets are shown the sender has not sent any weather packets the latest 1 day(s).
| Time | Temp. | Humidity | Pressure | Rain* | Wind** | Luminosity | Snow |
|---|---|---|---|---|---|---|---|
| 1778070600 | 20° C | 33% | 1010.6 hPa | - | - | - | - |
| 1778070000 | 20° C | 33% | 1010.7 hPa | - | - | - | - |
| 1778069400 | 20° C | 32% | 1010.8 hPa | - | - | - | - |
| 1778068800 | 20° C | 32% | 1010.9 hPa | - | - | - | - |
| 1778064000 | 20° C | 32% | 1011.7 hPa | - | - | - | - |
| 1778063400 | 20° C | 32% | 1011.7 hPa | - | - | - | - |
| 1778062800 | 20° C | 32% | 1011.7 hPa | - | - | - | - |
| 1778062200 | 20° C | 33% | 1011.6 hPa | - | - | - | - |
| 1778061600 | 20° C | 33% | 1011.8 hPa | - | - | - | - |
| 1778059800 | 20° C | 34% | 1011.9 hPa | - | - | - | - |
| 1778059200 | 19.44° C | 34% | 1011.9 hPa | - | - | - | - |
| 1778058600 | 19.44° C | 34% | 1011.8 hPa | - | - | - | - |
| 1778058000 | 19.44° C | 34% | 1011.9 hPa | - | - | - | - |
| 1778055599 | 19.44° C | 36% | 1011.9 hPa | - | - | - | - |
| 1778054400 | 18.89° C | 38% | 1012.1 hPa | - | - | - | - |
| 1778050800 | 17.78° C | 39% | 1012.4 hPa | - | - | - | - |
| 1778047800 | 16.11° C | 44% | 1012.6 hPa | - | - | - | - |
| 1778047200 | 15.56° C | 45% | 1012.6 hPa | - | - | - | - |
| 1778045999 | 14.44° C | 45% | 1012.9 hPa | - | - | - | - |
| 1778045400 | 14.44° C | 45% | 1013.1 hPa | - | - | - | - |
| 1778044799 | 14.44° C | 44% | 1013 hPa | - | - | - | - |
| 1778044199 | 14.44° C | 45% | 1012.9 hPa | - | - | - | - |
| 1778042399 | 15° C | 44% | 1012.8 hPa | - | - | - | - |
| 1778041799 | 15° C | 44% | 1012.9 hPa | - | - | - | - |
| 1778040600 | 15° C | 44% | 1012.9 hPa | - | - | - | - |
* Rain since midnight (hover to see other rain measurements)
** Current wind speed in m/s (hover to see current wind gust speed)